Location: Northam
(31.6525°S, 116.6655°E)
Time: 21:59:21
(UTC+08:00)

Hubble Space Telescope - Visible Passes

Search period start: 25 September 2022 00:00
Search period end: 05 October 2022 00:00
Orbit: 531 x 535 km, 28.5° (Epoch: 25 September)

Date Brightness Start Highest point End Pass type
(mag) Time Alt. Az. Time Alt. Az. Time Alt. Az.
27 Sep 3.3 04:34:28 10° N 04:36:18 13° NNE 04:38:09 10° NE visible
28 Sep 3.0 04:22:44 14° N 04:23:59 16° NNE 04:26:31 10° ENE visible
29 Sep 2.7 04:11:17 19° NNE 04:11:41 19° NNE 04:14:39 10° ENE visible
30 Sep 2.6 03:59:46 22° NNE 03:59:46 22° NNE 04:02:40 10° ENE visible
01 Oct 2.6 03:48:13 23° NE 03:48:13 23° NE 03:50:37 10° ENE visible
01 Oct 1.3 05:23:51 10° WNW 05:27:52 51° N 05:31:55 10° E visible
02 Oct 2.9 03:36:37 22° ENE 03:36:37 22° ENE 03:38:29 10° E visible
02 Oct 1.2 05:11:51 12° WNW 05:15:37 54° N 05:19:40 10° E visible
03 Oct 3.2 03:25:00 18° ENE 03:25:00 18° ENE 03:26:19 10° E visible
03 Oct 1.1 05:00:14 16° WNW 05:03:22 55° N 05:07:26 10° E visible
04 Oct 3.5 03:13:23 14° ENE 03:13:23 14° ENE 03:14:08 10° E visible
04 Oct 1.0 04:48:36 22° WNW 04:51:06 55° N 04:55:10 10° ENE visible
